Wind_Speed
15 15 16 16 15 15 15 14 14 13 14 13 13 14 13 14 14 14 15 15 15 15 16 17 17 17 18 18 18 18 18 18 18 18 19 18 19 19 19 19 18 19 19
15 15 16 15 15 15 14 14 14 15 15 15 14 14 14 14 15 16 17 17 17 17 17 18 18 18 19 19 19 19 19 19 19 19 20 20 19 19 20 20 20 21 21
15 15 15 15 16 15 15 14 15 14 15 16 15 15 15 15 16 17 17 17 18 18 18 18 19 19 19 19 20 20 20 20 20 20 20 21 20 20 21 22 22 23 23
14 14 14 15 15 16 16 15 15 15 16 16 16 16 16 16 16 17 17 18 19 19 19 19 19 19 19 20 20 20 20 21 20 21 21 21 22 22 22 23 23 23 23
15 15 14 15 16 16 16 17 16 17 17 17 17 16 17 17 17 17 18 18 19 19 19 19 19 19 20 20 20 21 21 21 21 22 22 22 22 23 23 23 24 23 24
14 15 14 15 15 15 15 16 17 17 17 17 17 17 18 18 18 18 18 18 18 19 19 19 20 20 20 20 21 21 22 23 23 24 23 23 23 23 23 23 24 24 24
14 15 15 15 15 15 15 15 16 17 18 18 17 18 18 19 19 18 19 19 19 20 20 20 21 21 21 21 21 22 23 23 24 25 24 24 24 24 24 24 25 25 26
14 14 15 15 14 15 16 16 16 17 18 19 19 19 19 20 19 19 19 20 19 20 20 21 21 21 21 21 22 22 23 23 24 24 24 25 25 24 24 25 26 26 26
15 15 15 16 15 15 16 16 16 17 18 18 19 19 20 20 20 20 20 20 20 20 20 21 21 20 20 21 22 22 22 23 24 24 24 25 25 25 25 25 26 27 27
17 17 16 16 16 15 15 16 17 17 18 18 19 19 20 20 20 21 21 21 20 20 20 21 21 20 20 21 21 20 20 21 23 24 25 25 25 25 26 26 26 27 28
16 17 17 17 16 16 16 16 17 17 18 19 19 19 20 21 21 21 21 21 21 20 20 20 21 20 20 21 21 21 20 21 22 23 24 25 26 26 26 26 26 27 28
16 16 16 16 17 17 17 17 17 18 18 18 18 19 20 20 20 21 21 21 21 20 20 20 20 20 20 20 20 20 21 22 22 22 24 24 26 27 27 27 27 27 29
16 17 17 16 16 17 17 17 17 17 17 18 18 19 20 19 20 20 20 20 20 20 19 19 20 19 19 19 19 20 20 21 22 22 24 25 25 26 26 27 27 28 29
17 17 17 17 17 17 17 17 17 17 17 18 19 20 20 20 20 20 20 20 19 19 19 20 20 20 19 19 19 20 20 21 22 23 24 25 25 25 25 26 26 27 28
16 16 16 16 17 18 18 18 18 18 18 20 21 21 21 21 21 20 20 20 19 19 19 19 19 19 20 21 20 20 20 21 22 23 24 25 25 25 25 25 25 26 27
16 16 16 17 17 17 18 18 18 19 20 21 21 21 21 21 21 21 21 20 20 19 19 19 20 19 20 20 20 21 22 22 23 23 24 24 24 25 25 25 25 26 27
17 17 17 18 17 17 17 17 17 18 20 20 20 21 21 21 21 21 21 21 21 20 20 19 20 20 20 20 20 21 22 23 24 24 25 25 25 25 25 26 27 27 27
18 18 18 18 17 17 18 18 19 19 19 19 20 20 20 20 20 21 22 22 21 21 21 21 21 21 21 21 21 21 21 22 24 25 25 25 25 25 26 27 28 28 28
19 18 18 18 18 19 19 19 20 20 20 20 20 20 20 20 20 20 21 21 21 21 22 22 22 22 22 21 21 21 21 22 23 23 23 24 25 26 26 27 27 27 28
18 18 18 19 19 19 20 20 19 19 20 20 19 20 20 19 19 20 20 20 20 21 21 21 21 21 21 21 20 21 21 22 22 22 23 24 24 25 26 27 28 28 29
19 19 19 19 20 20 20 20 20 20 20 20 20 20 19 19 19 19 19 20 20 20 20 20 21 21 20 20 20 21 21 21 21 21 22 23 24 25 26 27 27 28 29
20 20 19 19 19 19 19 20 20 20 20 20 20 19 18 18 18 18 19 19 20 20 20 21 21 20 20 20 20 21 21 21 21 21 22 23 24 25 26 27 28 29 29
19 19 19 19 19 20 20 20 20 20 20 20 20 19 18 18 18 19 19 19 19 19 20 21 20 20 21 20 20 21 21 21 21 22 22 23 24 25 27 27 28 29 29
20 19 19 19 19 20 20 20 21 20 20 20 20 19 19 19 19 19 19 20 20 20 20 20 20 20 21 21 21 21 22 22 22 22 23 23 24 26 27 28 28 29 28
21 20 19 19 19 20 20 20 20 21 20 20 20 19 20 20 20 20 20 21 21 21 21 21 20 21 22 22 21 21 21 22 21 22 23 24 25 26 26 27 27 27 27
19 19 20 20 20 20 20 20 21 21 20 20 19 20 20 20 20 21 21 21 21 21 22 22 21 22 22 22 22 22 22 22 22 22 24 25 26 26 25 25 25 25 25
Wind_Direction
261 261 262 262 263 266 265 265 264 264 264 267 271 274 275 275 273 274 276 277 278 279 278 275 274 272 269 266 264 264 264 263 261 259 258 258 259 258 256 255 254 253 251
260 259 258 259 260 261 262 264 262 263 264 266 269 272 275 274 275 278 279 278 278 278 278 275 275 274 271 268 264 263 263 263 261 259 258 256 257 257 255 255 254 254 253
261 259 255 257 258 259 263 261 263 265 266 268 270 272 275 276 276 277 279 279 281 278 277 276 275 274 271 269 266 263 262 262 261 260 259 258 258 258 257 255 255 254 254
260 257 254 256 257 259 260 262 264 267 268 270 271 271 275 278 281 278 278 280 282 280 278 277 274 274 273 269 267 264 263 262 262 260 260 261 260 259 258 256 254 254 255
256 255 258 258 258 259 261 263 264 268 271 271 270 272 275 278 280 279 279 280 281 278 276 276 274 273 273 269 267 265 264 262 263 262 262 263 262 261 260 258 256 255 255
257 256 258 258 259 260 263 266 266 267 269 269 269 273 275 277 279 278 280 282 281 278 275 277 274 272 273 271 268 266 265 263 262 262 262 263 263 262 261 259 256 256 256
259 257 259 261 262 261 264 267 266 267 267 267 269 274 278 278 280 280 281 282 280 279 276 277 276 272 272 272 269 268 266 265 264 262 261 261 262 262 261 258 256 256 257
256 258 261 263 264 265 265 267 267 270 270 268 270 275 276 278 280 280 280 280 279 278 277 276 277 274 271 270 270 268 266 266 264 262 262 261 261 262 261 260 258 257 257
261 263 262 263 266 268 268 269 269 270 270 272 273 273 277 278 278 280 280 281 280 279 278 277 276 274 272 270 269 267 267 266 264 263 262 262 262 262 261 262 260 260 258
260 262 262 263 265 269 270 272 272 273 273 275 276 276 279 279 282 280 279 282 281 280 280 281 278 273 272 271 270 268 267 265 265 265 264 264 264 262 262 263 263 262 260
260 261 263 265 266 268 271 274 276 274 274 276 277 279 279 280 282 281 279 280 281 282 283 282 280 277 273 271 270 268 267 267 270 269 267 265 263 262 262 263 264 263 263
261 264 264 267 267 268 270 273 275 274 274 275 277 280 281 281 281 281 282 280 279 281 282 281 279 278 276 273 271 267 267 269 273 273 271 269 265 263 263 263 263 263 262
262 263 265 270 272 273 273 273 274 274 273 275 278 281 281 282 282 282 282 281 278 278 281 280 278 278 279 277 273 268 269 271 273 274 274 273 271 268 266 265 265 264 263
265 266 268 270 273 273 273 272 273 274 274 277 280 281 281 281 282 282 282 280 280 280 279 280 280 280 279 278 274 271 271 273 275 275 276 276 274 271 269 268 267 266 264
265 266 268 270 273 275 277 274 273 274 276 277 278 281 280 279 279 278 280 279 279 279 279 279 279 279 278 280 276 273 273 273 277 278 277 276 275 274 271 269 269 270 267
264 265 268 271 273 275 277 276 275 275 279 280 278 278 279 279 278 278 277 278 279 279 279 278 277 277 277 279 278 274 274 275 276 280 277 275 274 273 271 270 270 271 271
269 269 269 269 270 272 273 276 279 282 285 283 280 278 277 277 277 277 277 278 277 277 277 279 279 277 277 278 278 277 276 275 277 279 277 273 273 272 272 272 271 272 271
273 272 270 270 270 273 274 277 279 282 284 283 281 279 278 278 277 278 278 277 275 275 276 278 279 279 279 280 278 278 277 278 279 279 276 275 275 274 274 274 273 273 273
274 273 271 270 272 274 276 278 278 280 282 283 281 279 279 280 278 278 277 277 276 275 276 276 277 279 279 279 279 280 279 279 280 279 277 276 277 276 276 277 275 274 274
277 276 273 273 273 276 278 279 279 279 282 282 280 279 280 280 279 278 276 275 275 276 276 277 278 280 280 280 281 281 280 281 280 279 278 278 278 278 278 279 278 275 275
281 280 274 273 274 275 277 278 279 279 279 280 281 281 279 279 278 277 276 275 276 277 278 279 280 281 281 281 283 282 282 282 281 282 282 281 282 281 281 280 279 278 277
281 278 276 273 273 273 275 277 278 278 280 280 280 279 277 277 276 276 277 277 279 280 281 281 281 280 279 280 282 283 283 283 284 283 283 284 285 284 284 282 281 280 280
280 278 277 274 273 273 274 275 276 278 280 280 279 277 276 279 278 280 280 280 281 282 281 282 283 282 280 279 281 284 284 285 286 285 284 285 286 287 286 285 285 285 283
280 279 277 276 275 275 275 276 277 279 280 280 279 277 277 279 279 281 281 281 281 283 283 281 283 284 282 280 282 283 284 285 286 287 287 287 288 289 289 289 288 287 286
278 277 276 275 275 275 275 277 278 280 281 281 279 278 277 278 279 279 280 280 280 281 281 282 282 284 282 281 283 285 284 284 286 288 288 288 289 291 291 291 290 289 287
278 277 275 275 276 277 278 277 279 280 280 280 279 278 276 277 282 282 281 280 280 280 281 282 283 285 284 284 285 285 285 286 288 289 290 290 291 292 294 294 293 292 289
Height
5861 5862 5862 5862 5862 5863 5863 5863 5863 5863 5863 5863 5863 5862 5862 5862 5861 5860 5860 5860 5859 5859 5858 5858 5857 5857 5857 5857 5857 5858 5858 5859 5859 5859 5859 5860 5861 5861 5862 5862 5863 5864 5865
5857 5858 5858 5858 5859 5859 5860 5860 5860 5859 5859 5859 5859 5859 5858 5858 5857 5857 5856 5855 5855 5854 5854 5853 5853 5853 5852 5852 5852 5853 5853 5854 5854 5855 5855 5855 5856 5856 5857 5858 5858 5859 5860
5853 5853 5854 5855 5855 5856 5856 5856 5856 5856 5856 5856 5855 5855 5854 5854 5854 5853 5852 5851 5850 5849 5849 5848 5848 5847 5847 5847 5847 5848 5848 5848 5849 5849 5850 5850 5851 5851 5852 5852 5853 5854 5855
5849 5850 5851 5851 5852 5852 5852 5852 5852 5852 5852 5852 5852 5851 5850 5850 5850 5849 5848 5846 5845 5844 5843 5843 5842 5842 5842 5842 5842 5842 5843 5843 5843 5844 5844 5845 5845 5845 5846 5846 5847 5848 5849
5845 5846 5847 5847 5847 5848 5848 5848 5848 5848 5848 5848 5847 5847 5846 5845 5845 5844 5843 5842 5840 5839 5838 5837 5837 5837 5837 5836 5837 5837 5837 5837 5838 5838 5838 5839 5839 5840 5840 5840 5841 5842 5843
5842 5842 5842 5843 5843 5843 5843 5844 5844 5844 5844 5843 5842 5842 5842 5841 5840 5839 5838 5836 5835 5834 5833 5832 5831 5831 5831 5831 5831 5831 5831 5831 5832 5832 5832 5833 5833 5833 5833 5834 5835 5836 5836
5837 5838 5838 5838 5839 5839 5839 5839 5839 5839 5839 5839 5838 5838 5837 5836 5835 5834 5833 5831 5830 5828 5827 5827 5826 5825 5825 5824 5824 5825 5825 5825 5825 5825 5826 5826 5826 5826 5827 5827 5828 5829 5830
5833 5834 5834 5834 5834 5834 5835 5835 5835 5834 5834 5834 5833 5833 5832 5832 5830 5829 5828 5826 5825 5823 5822 5821 5820 5819 5819 5818 5818 5818 5818 5818 5818 5818 5819 5819 5820 5820 5820 5820 5821 5822 5823
5830 5830 5830 5830 5830 5830 5830 5830 5830 5830 5829 5829 5828 5828 5827 5826 5825 5824 5823 5821 5820 5818 5817 5815 5814 5814 5813 5813 5812 5812 5812 5812 5812 5811 5812 5812 5813 5813 5813 5814 5814 5814 5815
5826 5826 5826 5826 5826 5825 5825 5825 5825 5825 5824 5824 5823 5823 5822 5821 5820 5819 5818 5816 5814 5813 5811 5810 5809 5809 5808 5807 5806 5806 5806 5805 5805 5805 5805 5806 5806 5806 5806 5806 5807 5807 5807
5821 5821 5821 5821 5821 5821 5821 5821 5820 5820 5819 5819 5818 5817 5816 5815 5814 5813 5812 5811 5809 5807 5806 5805 5804 5803 5802 5801 5800 5800 5800 5799 5799 5799 5799 5798 5798 5798 5798 5799 5799 5799 5799
5816 5816 5816 5816 5816 5816 5816 5816 5815 5815 5814 5814 5813 5812 5811 5810 5808 5807 5806 5804 5803 5802 5800 5799 5798 5797 5796 5795 5794 5794 5793 5793 5793 5793 5792 5791 5791 5790 5791 5791 5791 5791 5791
5812 5812 5811 5811 5811 5811 5811 5810 5810 5810 5809 5809 5808 5807 5806 5804 5803 5801 5800 5799 5798 5797 5795 5794 5793 5792 5791 5790 5789 5788 5788 5787 5787 5786 5785 5784 5783 5783 5783 5783 5783 5783 5783
5807 5806 5806 5806 5806 5806 5806 5805 5805 5804 5804 5803 5802 5801 5800 5798 5797 5795 5794 5793 5792 5791 5790 5789 5788 5787 5785 5784 5784 5782 5781 5781 5781 5780 5779 5778 5777 5776 5776 5775 5775 5774 5774
5802 5802 5801 5801 5801 5801 5800 5800 5799 5798 5798 5797 5796 5795 5794 5792 5791 5789 5788 5787 5787 5786 5785 5784 5783 5781 5780 5779 5778 5777 5776 5775 5775 5773 5772 5771 5770 5769 5769 5768 5767 5767 5766
5797 5797 5797 5796 5796 5795 5795 5794 5793 5793 5792 5790 5790 5789 5788 5786 5785 5783 5782 5782 5781 5780 5780 5779 5777 5776 5775 5774 5772 5771 5770 5769 5768 5767 5766 5764 5763 5762 5762 5761 5760 5759 5758
5792 5792 5791 5791 5790 5790 5789 5789 5788 5787 5786 5784 5783 5782 5781 5780 5779 5778 5777 5776 5775 5774 5774 5773 5772 5771 5769 5768 5766 5765 5764 5763 5762 5760 5759 5758 5757 5756 5754 5753 5752 5751 5750
5787 5786 5786 5785 5785 5784 5784 5783 5782 5781 5780 5779 5777 5776 5775 5774 5773 5771 5770 5770 5769 5768 5768 5767 5766 5765 5764 5762 5760 5759 5758 5756 5755 5753 5752 5751 5750 5748 5747 5746 5744 5743 5742
5781 5780 5780 5779 5779 5779 5778 5777 5776 5775 5774 5773 5772 5770 5769 5768 5766 5765 5764 5763 5763 5762 5761 5761 5760 5758 5757 5756 5754 5753 5751 5750 5748 5746 5745 5744 5743 5741 5740 5738 5736 5735 5733
5775 5774 5774 5774 5773 5773 5772 5771 5770 5769 5768 5767 5765 5764 5763 5762 5760 5759 5758 5757 5757 5756 5755 5754 5753 5752 5750 5749 5748 5746 5745 5743 5741 5740 5738 5737 5735 5734 5732 5730 5728 5726 5724
5769 5768 5767 5767 5767 5767 5766 5765 5764 5763 5762 5760 5759 5758 5757 5756 5755 5753 5752 5752 5751 5750 5749 5748 5747 5745 5744 5743 5742 5740 5738 5736 5735 5733 5732 5730 5728 5726 5724 5722 5720 5718 5716
5763 5762 5761 5761 5761 5761 5760 5759 5758 5757 5756 5755 5753 5752 5751 5750 5749 5748 5747 5746 5745 5744 5743 5741 5740 5739 5738 5737 5735 5734 5732 5730 5729 5728 5725 5723 5721 5719 5716 5714 5712 5709 5707
5756 5755 5755 5755 5754 5754 5754 5753 5752 5751 5750 5749 5747 5746 5745 5744 5743 5742 5741 5740 5739 5738 5737 5736 5734 5733 5731 5730 5729 5728 5725 5723 5722 5720 5718 5716 5714 5711 5708 5706 5703 5700 5698
5750 5749 5749 5749 5748 5748 5747 5746 5745 5744 5743 5742 5741 5740 5740 5739 5738 5737 5735 5734 5733 5732 5730 5729 5728 5726 5724 5723 5722 5721 5719 5717 5715 5713 5711 5709 5706 5704 5701 5697 5694 5691 5688
5743 5743 5742 5742 5742 5742 5741 5740 5739 5738 5737 5736 5735 5734 5733 5733 5732 5730 5729 5728 5727 5726 5724 5723 5722 5720 5718 5716 5715 5714 5712 5710 5708 5706 5703 5702 5699 5696 5693 5689 5685 5682 5679
5736 5736 5736 5736 5735 5735 5734 5733 5732 5731 5730 5729 5728 5727 5727 5726 5725 5724 5723 5722 5720 5719 5718 5716 5715 5713 5711 5710 5708 5707 5705 5703 5701 5699 5696 5694 5691 5688 5685 5681 5677 5674 5671